Tracking 19280 objects as of 14-Nov-2018
HD Live streaming from Space Station
objects crossing your sky now

IRIDIUM 95

Track IRIDIUM 95 now!
10-day predictions
IRIDIUM 95 is classified as:


NORAD ID: 27375
Int'l Code: 2002-005D
Perigee: 783.5 km
Apogee: 786.1 km
Inclination: 86.4 °
Period: 100.4 minutes
Semi major axis: 7155 km
RCS: 3.5114 m2 (large)
Launch date: February 11, 2002
Source: United States (US)
Launch site: AIR FORCE WESTERN TEST RANGE (AFWTR)

Spare; stored in 667 km storage orbit, not raised to 780 km operational orbit until needed
aabbcc
Your satellite tracking list
Your tracking list is empty




NASA's NSSDC Master Catalog

Two Line Element Set (TLE):
1 27375U 02005D   18317.38920358  .00000150  00000-0  46339-4 0  9994
2 27375  86.3971  72.2759 0001811 116.8549 243.2832 14.34214648884615
Source of the keplerian elements: AFSPC